| time (UTC) | temp F | wind direction | speed knots | gust knots | rain 1hr in | rain 24hr in | rain mn in | humidity % | barometer mb |
| 20260902060055 | 60 | 0 | 0.0 | 0.0 | 0.01 | 0.31 | 0.01 | 97 | 1020.9 |
| 20260902054608 | 60 | 0 | 0.0 | 0.0 | 0.01 | 0.31 | 0.01 | 97 | 1020.8 |
| 20260902053100 | 60 | 0 | 0.0 | 0.0 | 0.00 | 0.30 | 0.00 | 96 | 1020.5 |
| 20260902051542 | 61 | 0 | 0.0 | 0.0 | 0.00 | 0.30 | 0.00 | 96 | 1020.4 |
| 20260902050042 | 61 | 0 | 0.0 | 0.0 | 0.00 | 0.30 | 0.00 | 96 | 1020.4 |
| 20260902044552 | 61 | 0 | 0.0 | 0.0 | 0.00 | 0.30 | 0.00 | 96 | 1020.2 |
| 20260902043046 | 61 | 0 | 0.0 | 0.0 | 0.00 | 0.30 | 0.00 | 96 | 1020.1 |
| 20260902041541 | 61 | 0 | 0.0 | 0.0 | 0.00 | 0.30 | 0.00 | 96 | 1020.0 |
| 20260902040048 | 61 | 0 | 0.0 | 0.0 | 0.00 | 0.30 | 0.00 | 96 | 1019.7 |
| 20260902034545 | 61 | 0 | 0.0 | 0.0 | 0.00 | 0.30 | 0.30 | 96 | 1019.7 |
| 20260902033044 | 61 | 0 | 0.0 | 0.0 | 0.00 | 0.30 | 0.30 | 96 | 1019.7 |
| 20260902031547 | 61 | 0 | 0.0 | 0.0 | 0.00 | 0.30 | 0.30 | 96 | 1019.6 |
| 20260902030042 | 61 | 0 | 0.0 | 1.7 | 0.00 | 0.30 | 0.30 | 96 | 1019.7 |
| 20260902024541 | 61 | 0 | 0.0 | 1.7 | 0.00 | 0.30 | 0.30 | 96 | 1019.6 |
| 20260902023047 | 61 | 0 | 0.0 | 0.9 | 0.00 | 0.30 | 0.30 | 96 | 1019.3 |
| 20260902023022 | 62 | 30 | 0.0 | 0.0 | 0.00 | 0.29 | 0.30 | 96 | 1019.2 |
| 20260902021542 | 61 | 0 | 0.0 | 0.0 | 0.00 | 0.30 | 0.30 | 96 | 1019.3 |
| 20260902020042 | 62 | 0 | 0.0 | 0.9 | 0.00 | 0.30 | 0.30 | 96 | 1019.4 |
| 20260902014540 | 62 | 0 | 0.0 | 0.0 | 0.00 | 0.30 | 0.30 | 96 | 1019.3 |
| 20260902013043 | 62 | 0 | 0.0 | 0.0 | 0.00 | 0.30 | 0.30 | 96 | 1019.3 |
| 20260902011545 | 62 | 0 | 0.0 | 0.0 | 0.00 | 0.30 | 0.30 | 96 | 1019.3 |
| 20260902010045 | 62 | 0 | 0.0 | 0.0 | 0.00 | 0.30 | 0.30 | 96 | 1019.5 |
| 20260902004543 | 62 | 0 | 0.0 | 0.0 | 0.00 | 0.30 | 0.30 | 96 | 1019.5 |
| 20260902003043 | 62 | 0 | 0.0 | 0.0 | 0.00 | 0.30 | 0.30 | 95 | 1019.2 |
| 20260902001556 | 62 | 0 | 0.0 | 0.0 | 0.00 | 0.30 | 0.30 | 95 | 1019.0 |
| 20260902000045 | 62 | 0 | 0.0 | 0.0 | 0.00 | 0.30 | 0.30 | 95 | 1018.7 |
| 20260901234541 | 62 | 0 | 0.0 | 0.0 | 0.00 | 0.30 | 0.30 | 95 | 1018.6 |
| 20260901233039 | 62 | 0 | 0.0 | 0.9 | 0.00 | 0.30 | 0.30 | 95 | 1018.5 |
| 20260901231548 | 63 | 0 | 0.0 | 0.0 | 0.00 | 0.30 | 0.30 | 94 | 1018.4 |
| 20260901230043 | 63 | 0 | 0.0 | 0.0 | 0.00 | 0.30 | 0.30 | 94 | 1018.5 |
| 20260901224545 | 63 | 0 | 0.0 | 0.0 | 0.00 | 0.30 | 0.30 | 94 | 1018.4 |
| 20260901223050 | 64 | 0 | 0.0 | 0.0 | 0.00 | 0.30 | 0.30 | 94 | 1018.6 |
| 20260901221556 | 64 | 0 | 0.0 | 0.0 | 0.00 | 0.30 | 0.30 | 93 | 1018.7 |
| 20260901220052 | 64 | 0 | 0.0 | 0.0 | 0.00 | 0.30 | 0.30 | 93 | 1018.5 |
| 20260901214551 | 64 | 0 | 0.0 | 0.9 | 0.00 | 0.30 | 0.30 | 93 | 1018.3 |
| 20260901213048 | 64 | 0 | 0.0 | 0.0 | 0.00 | 0.30 | 0.30 | 93 | 1018.2 |
| 20260901211544 | 65 | 0 | 0.0 | 0.0 | 0.00 | 0.30 | 0.30 | 93 | 1018.1 |
| 20260901210044 | 65 | 170 | 0.0 | 2.6 | 0.00 | 0.30 | 0.30 | 92 | 1018.2 |
| 20260901204549 | 65 | 0 | 0.0 | 0.9 | 0.00 | 0.30 | 0.30 | 92 | 1018.1 |
| 20260901203047 | 65 | 140 | 0.0 | 1.7 | 0.00 | 0.30 | 0.30 | 93 | 1017.8 |
| 20260901201543 | 65 | 0 | 0.0 | 0.0 | 0.00 | 0.30 | 0.30 | 94 | 1017.9 |
| 20260901200042 | 64 | 0 | 0.0 | 0.9 | 0.00 | 0.30 | 0.30 | 92 | 1018.0 |
| 20260901194545 | 65 | 0 | 0.0 | 0.0 | 0.00 | 0.30 | 0.30 | 93 | 1017.9 |
| 20260901193048 | 65 | 0 | 0.0 | 0.9 | 0.00 | 0.30 | 0.30 | 93 | 1017.8 |
| 20260901191600 | 65 | 0 | 0.0 | 0.0 | 0.00 | 0.30 | 0.30 | 94 | 1017.8 |
| 20260901190045 | 65 | 0 | 0.0 | 0.0 | 0.00 | 0.30 | 0.30 | 94 | 1018.0 |
| 20260901184547 | 64 | 0 | 0.0 | 1.7 | 0.00 | 0.30 | 0.30 | 93 | 1018.1 |
| 20260901183048 | 64 | 22 | 0.0 | 0.9 | 0.00 | 0.30 | 0.30 | 93 | 1018.1 |
| 20260901181547 | 64 | 0 | 0.0 | 1.7 | 0.00 | 0.30 | 0.30 | 94 | 1018.1 |
| 20260901180046 | 63 | 0 | 0.0 | 1.7 | 0.00 | 0.30 | 0.30 | 94 | 1018.0 |
| 20260901174548 | 63 | 0 | 0.0 | 0.0 | 0.00 | 0.30 | 0.30 | 96 | 1017.9 |
| 20260901173055 | 62 | 0 | 0.0 | 1.7 | 0.00 | 0.30 | 0.30 | 96 | 1017.7 |
| 20260901171556 | 61 | 0 | 0.0 | 0.9 | 0.00 | 0.30 | 0.30 | 96 | 1017.8 |
| 20260901170047 | 61 | 20 | 0.0 | 1.7 | 0.00 | 0.30 | 0.30 | 96 | 1017.8 |
| 20260901164546 | 61 | 0 | 0.0 | 1.7 | 0.00 | 0.30 | 0.30 | 96 | 1017.8 |
| 20260901163042 | 61 | 0 | 0.0 | 0.0 | 0.00 | 0.30 | 0.30 | 96 | 1017.6 |
| 20260901161605 | 60 | 0 | 0.0 | 0.9 | 0.00 | 0.30 | 0.30 | 96 | 1017.7 |
| 20260901160043 | 60 | 0 | 0.0 | 0.0 | 0.00 | 0.30 | 0.30 | 97 | 1018.0 |
| 20260901154553 | 60 | 0 | 0.0 | 0.0 | 0.00 | 0.30 | 0.30 | 96 | 1018.3 |
| 20260901153050 | 60 | 0 | 0.0 | 0.0 | 0.00 | 0.30 | 0.30 | 97 | 1018.2 |
| 20260901151542 | 59 | 0 | 0.0 | 0.9 | 0.00 | 0.30 | 0.30 | 96 | 1018.2 |
| 20260901150048 | 59 | 0 | 0.0 | 1.7 | 0.00 | 0.30 | 0.30 | 96 | 1018.4 |
| 20260901144549 | 59 | 0 | 0.0 | 0.9 | 0.00 | 0.30 | 0.30 | 96 | 1018.2 |
| 20260901143047 | 59 | 0 | 0.0 | 1.7 | 0.00 | 0.30 | 0.30 | 97 | 1017.9 |
| 20260901141548 | 58 | 0 | 0.0 | 1.7 | 0.01 | 0.30 | 0.30 | 97 | 1017.8 |
| 20260901140041 | 58 | 0 | 0.0 | 0.9 | 0.02 | 0.30 | 0.30 | 96 | 1017.9 |
| 20260901135325 | 59 | 81 | 0.0 | 0.0 | 0.00 | 0.29 | 0.30 | 96 | 1017.8 |
| 20260901134825 | 59 | 81 | 0.0 | 0.0 | 0.00 | 0.29 | 0.30 | 96 | 1017.8 |
| 20260901134545 | 58 | 0 | 0.0 | 1.7 | 0.04 | 0.30 | 0.30 | 96 | 1017.9 |
| 20260901134321 | 59 | 48 | 0.0 | 0.0 | 0.00 | 0.29 | 0.30 | 96 | 1018.0 |
| 20260901133809 | 59 | 19 | 0.0 | 0.0 | 0.00 | 0.29 | 0.30 | 97 | 1018.1 |
| 20260901133301 | 58 | 20 | 0.0 | 0.0 | 0.04 | 0.29 | 0.30 | 97 | 1018.1 |
| 20260901133046 | 58 | 37 | 0.0 | 1.7 | 0.06 | 0.30 | 0.30 | 97 | 1018.2 |
| 20260901132801 | 58 | 325 | 0.0 | 0.0 | 0.05 | 0.29 | 0.30 | 96 | 1018.0 |
| 20260901132259 | 58 | 325 | 0.0 | 0.0 | 0.05 | 0.29 | 0.30 | 96 | 1018.0 |
| 20260901131755 | 58 | 325 | 0.0 | 0.0 | 0.05 | 0.29 | 0.30 | 96 | 1018.1 |
| 20260901131546 | 57 | 0 | 0.0 | 0.9 | 0.08 | 0.29 | 0.29 | 96 | 1018.0 |
| 20260901131256 | 58 | 325 | 0.0 | 0.0 | 0.06 | 0.29 | 0.28 | 96 | 1017.9 |
| 20260901130058 | 57 | 37 | 0.0 | 1.7 | 0.13 | 0.28 | 0.28 | 96 | 1018.3 |
| 20260901124545 | 57 | 0 | 0.0 | 0.0 | 0.15 | 0.26 | 0.26 | 96 | 1018.2 |
| 20260901123043 | 57 | 0 | 0.0 | 0.0 | 0.14 | 0.23 | 0.23 | 96 | 1018.4 |
| 20260901121543 | 57 | 0 | 0.0 | 0.0 | 0.13 | 0.20 | 0.20 | 96 | 1018.7 |
| 20260901120041 | 57 | 0 | 0.0 | 0.0 | 0.11 | 0.15 | 0.15 | 95 | 1018.7 |
| 20260901115016 | 57 | 115 | 0.0 | 0.0 | 0.08 | 0.12 | 0.12 | 95 | 1018.6 |
| 20260901114608 | 57 | 0 | 0.0 | 0.0 | 0.11 | 0.11 | 0.11 | 95 | 1018.6 |
| 20260901113043 | 57 | 0 | 0.0 | 0.0 | 0.09 | 0.09 | 0.09 | 95 | 1018.7 |
| 20260901111547 | 57 | 0 | 0.0 | 0.0 | 0.07 | 0.07 | 0.07 | 95 | 1018.7 |
| 20260901110051 | 57 | 0 | 0.0 | 0.0 | 0.04 | 0.04 | 0.04 | 94 | 1018.4 |
| 20260901104543 | 57 | 0 | 0.0 | 0.0 | 0.00 | 0.00 | 0.00 | 94 | 1018.2 |
| 20260901103042 | 57 | 0 | 0.0 | 0.0 | 0.00 | 0.00 | 0.00 | 94 | 1018.1 |
| 20260901101543 | 57 | 0 | 0.0 | 0.0 | 0.00 | 0.00 | 0.00 | 94 | 1017.7 |
| 20260901100044 | 57 | 0 | 0.0 | 0.0 | 0.00 | 0.00 | 0.00 | 94 | 1017.9 |
| 20260901094544 | 57 | 0 | 0.0 | 0.0 | 0.00 | 0.00 | 0.00 | 94 | 1017.7 |
| 20260901093050 | 57 | 0 | 0.0 | 0.0 | 0.00 | 0.00 | 0.00 | 93 | 1017.6 |
| 20260901091545 | 57 | 0 | 0.0 | 0.0 | 0.00 | 0.00 | 0.00 | 93 | 1017.8 |
| 20260901090049 | 57 | 0 | 0.0 | 0.0 | 0.00 | 0.00 | 0.00 | 93 | 1017.7 |
| 20260901084548 | 57 | 0 | 0.0 | 0.0 | 0.00 | 0.00 | 0.00 | 93 | 1017.7 |
| 20260901083046 | 57 | 0 | 0.0 | 0.0 | 0.00 | 0.00 | 0.00 | 93 | 1017.6 |
| 20260901081545 | 57 | 0 | 0.0 | 0.0 | 0.00 | 0.00 | 0.00 | 93 | 1017.9 |
| 20260901080415 | 58 | 115 | 0.0 | 0.0 | 0.00 | 0.00 | 0.00 | 93 | 1017.9 |
| 20260901080049 | 57 | 0 | 0.0 | 0.0 | 0.00 | 0.00 | 0.00 | 93 | 1017.9 |
| 20260901074547 | 57 | 0 | 0.0 | 0.0 | 0.00 | 0.00 | 0.00 | 93 | 1017.8 |
| 20260901073046 | 58 | 0 | 0.0 | 0.0 | 0.00 | 0.00 | 0.00 | 94 | 1017.7 |
| 20260901071543 | 58 | 0 | 0.0 | 0.0 | 0.00 | 0.00 | 0.00 | 94 | 1017.9 |
| 20260901070054 | 57 | 0 | 0.0 | 0.0 | 0.00 | 0.00 | 0.00 | 94 | 1017.9 |
| 20260901064543 | 57 | 0 | 0.0 | 0.0 | 0.00 | 0.00 | 0.00 | 94 | 1018.0 |
| 20260901063046 | 57 | 0 | 0.0 | 0.0 | 0.00 | 0.00 | 0.00 | 94 | 1018.1 |
| 20260901061548 | 57 | 0 | 0.0 | 0.0 | 0.00 | 0.00 | 0.00 | 94 | 1018.4 |